Weather History for Veracruz Airport, Mexico

Change the Weather History Date:

Tuesday, October 30, 2012

  Actual Average Record
Temperature  
Mean Temperature 72 °F -  
Max Temperature 75 °F 82 °F 91 °F (1996)
Min Temperature 68 °F 66 °F 62 °F (2011)
Cooling Degree Days 7    
Growing Degree Days 22 (Base 50)    
Moisture  
Dew Point 69 °F    
Average Humidity 91    
Maximum Humidity 94    
Minimum Humidity 83    
Precipitation  
Precipitation 0.10 in - - ()
Sea Level Pressure  
Sea Level Pressure 30.04 in    
Wind  
Wind Speed 4 mph ()    
Max Wind Speed 9 mph    
Max Gust Speed -    
Visibility 5.6 miles    
Events Rain    
Averages and records for this station are not official NWS values.
T = Trace of Precipitation, MM = Missing Value Source: Averaged Metar Reports

Daily Weather History Graph

Daily Weather History Graph

Search for Another Location

Airport:

Trip Planner

Search our weather history database for the weather conditions in past years. The results will help you decide how hot, cold, wet, or windy it might be!

Date:

Astronomy

Oct. 30, 2012 Rise Set
Actual Time 6:24 AM CST 5:51 PM CST
Civil Twilight 6:02 AM CST 6:14 PM CST
Nautical Twilight 5:36 AM CST 6:40 PM CST
Astronomical Twilight 5:10 AM CST 7:06 PM CST
Moon 6:33 PM CST (10/30) 7:02 AM CST (10/30)
Length of Visible Light 12h 12m
Length of Day
11h 27m
Full, 99% of the Moon is Illuminated
Oct 30
Full
Nov 6
Last Quarter
Nov 13
New
Nov 20
First Quarter
Nov 28
Full

Hourly Weather History & Observations

Time (CST) Temp. Dew Point Humidity Pressure Visibility Wind Dir Wind Speed Gust Speed Precip Events Conditions
5:10 AM 69.8 °F 68.0 °F 94% 30.05 in 7.0 mi West 4.6 mph - N/A   Overcast
5:47 AM 69.8 °F 68.0 °F 94% 30.03 in 5.0 mi WNW 3.5 mph - N/A Rain Light Rain
6:42 AM 69.8 °F 68.0 °F 94% 30.06 in 6.0 mi North 9.2 mph - N/A   Overcast
7:24 AM 69.8 °F 68.0 °F 94% 30.07 in 3.0 mi NNE 9.2 mph - N/A Rain Light Rain
7:43 AM 69.8 °F 68.0 °F 94% 30.07 in 6.0 mi NNW 6.9 mph - N/A   Overcast
8:20 AM 69.8 °F 68.0 °F 94% 30.08 in 5.0 mi North 4.6 mph - N/A Rain Light Rain
8:54 AM 71.6 °F 68.0 °F 88% 30.06 in 3.0 mi NW 3.5 mph - N/A Rain Light Rain
9:44 AM 71.6 °F 69.8 °F 94% 30.10 in 4.0 mi WNW 3.5 mph - N/A Rain Light Rain
10:42 AM 71.6 °F 69.8 °F 94% 30.09 in 4.0 mi NW 5.8 mph - N/A Rain Light Rain
11:47 AM 75.2 °F 71.6 °F 89% 30.03 in 5.0 mi NW 4.6 mph - N/A   Overcast
12:47 PM 71.6 °F 68.0 °F 88% 30.06 in 4.0 mi SE 6.9 mph - N/A Rain Light Rain
1:42 PM 71.6 °F 69.8 °F 94% 30.04 in 4.0 mi South 4.6 mph - N/A Rain Light Rain
2:43 PM 71.6 °F 69.8 °F 94% 29.97 in 6.0 mi Calm Calm - N/A   Overcast
3:42 PM 75.2 °F 69.8 °F 83% 30.00 in 7.0 mi Calm Calm - N/A   Mostly Cloudy
4:48 PM 75.2 °F 69.8 °F 83% 30.00 in 7.0 mi SE 4.6 mph - N/A   Mostly Cloudy
5:43 PM 73.4 °F 69.8 °F 88% 29.97 in 7.0 mi Calm Calm - N/A   Overcast
6:44 PM 71.6 °F 69.8 °F 94% 30.02 in 7.0 mi Calm Calm - N/A   Scattered Clouds
7:43 PM 71.6 °F 68.0 °F 88% 30.04 in 7.0 mi Calm Calm - N/A   Mostly Cloudy
8:49 PM 69.8 °F 68.0 °F 94% 30.00 in 7.0 mi Calm Calm - N/A   Scattered Clouds
9:44 PM 69.8 °F 66.2 °F 88% 30.06 in 7.0 mi Calm Calm - N/A   Mostly Cloudy
10:45 PM 68.0 °F 66.2 °F 94% 30.05 in 7.0 mi Calm Calm - N/A   Mostly Cloudy